CW0630 Weather Reports


time (UTC)temp
C
wind
direction
speed
KPH
gust
KPH
rain 1hr
cm
rain 24hr
cm
rain mn
cm
humidity
%
barometer
mb
20260905061019 21 229 0.0 0.0 0.00 0.66 0.00 96 1012.1
20260905051011 22 219 0.0 0.0 0.00 0.66 0.00 95 1013.4
20260905041024 22 217 0.0 4.8 0.00 0.66 0.00 95 1013.9
20260905031022 22 200 0.0 0.0 0.00 0.66 0.66 95 1014.0
20260905021032 22 191 9.7 9.7 0.00 0.66 0.66 94 1014.0
20260905011026 22 201 0.0 0.0 0.00 0.66 0.66 94 1013.0
20260905001013 23 178 0.0 0.0 0.03 0.66 0.66 93 1012.4
20260904231031 23 198 0.0 0.0 0.05 0.64 0.64 92 1013.9
20260904221032 24 342 1.6 1.6 0.61 0.61 0.61 89 1014.5
20260904211016 33 5 20.9 20.9 0.00 0.00 0.00 62 1012.3
20260904201025 33 178 3.2 3.2 0.00 0.00 0.00 61 1011.7
20260904191014 36 311 0.0 0.0 0.00 0.00 0.00 52 1012.7
20260904181023 36 9 0.0 3.2 0.00 0.00 0.00 55 1013.8
20260904171029 35 5 0.0 1.6 0.00 0.00 0.00 55 1014.0
20260904161016 35 5 3.2 3.2 0.00 0.00 0.00 55 1014.5
20260904151030 35 209 0.0 0.0 0.00 0.00 0.00 62 1014.8
20260904141028 32 219 0.0 0.0 0.00 0.00 0.00 66 1014.5
20260904131020 30 219 0.0 1.6 0.00 0.00 0.00 71 1014.4
20260904121038 27 200 0.0 0.0 0.00 0.00 0.00 80 1014.6
20260904111049 24 124 0.0 0.0 0.00 0.00 0.00 91 1014.4
20260904101026 24 119 0.0 0.0 0.00 0.00 0.00 88 1014.4
20260904091022 24 118 0.0 0.0 0.00 0.00 0.00 86 1014.6
20260904081014 25 119 0.0 0.0 0.00 0.00 0.00 84 1014.3
20260904071041 26 113 0.0 0.0 0.00 0.00 0.00 80 1014.0